File backup.txt content, last update Saturday October 31 2020, 05:32:18


1604116386 Temp=12.96*C Humidity=76.58% Pressure=100754.76Pa
1604116446 Temp=12.96*C Humidity=76.60% Pressure=100761.72Pa
1604116506 Temp=12.96*C Humidity=76.62% Pressure=100762.82Pa
1604116567 Temp=12.97*C Humidity=76.61% Pressure=100759.17Pa
1604116627 Temp=12.97*C Humidity=76.63% Pressure=100757.82Pa
1604116686 Temp=12.98*C Humidity=76.66% Pressure=100756.97Pa
1604116746 Temp=12.99*C Humidity=76.60% Pressure=100755.37Pa
1604116806 Temp=13.00*C Humidity=76.54% Pressure=100760.45Pa
1604116866 Temp=13.00*C Humidity=76.56% Pressure=100757.55Pa
1604116926 Temp=13.01*C Humidity=76.56% Pressure=100757.89Pa
1604116986 Temp=13.01*C Humidity=76.57% Pressure=100761.66Pa
1604117046 Temp=13.02*C Humidity=76.57% Pressure=100759.84Pa
1604117106 Temp=13.01*C Humidity=76.50% Pressure=100760.06Pa
1604117167 Temp=13.02*C Humidity=76.47% Pressure=100758.94Pa
1604117227 Temp=13.01*C Humidity=76.44% Pressure=100758.54Pa
1604117286 Temp=13.00*C Humidity=76.45% Pressure=100763.09Pa
1604117346 Temp=13.00*C Humidity=76.46% Pressure=100759.10Pa
1604117406 Temp=13.00*C Humidity=76.50% Pressure=100762.95Pa
1604117466 Temp=12.99*C Humidity=76.49% Pressure=100763.88Pa
1604117526 Temp=12.99*C Humidity=76.52% Pressure=100761.44Pa
1604117586 Temp=12.98*C Humidity=76.54% Pressure=100762.40Pa
1604117646 Temp=12.99*C Humidity=76.52% Pressure=100761.91Pa
1604117706 Temp=12.99*C Humidity=76.51% Pressure=100757.88Pa
1604117766 Temp=12.97*C Humidity=76.53% Pressure=100762.66Pa
1604117826 Temp=12.98*C Humidity=76.52% Pressure=100763.99Pa
1604117886 Temp=12.99*C Humidity=76.52% Pressure=100761.91Pa
1604117946 Temp=12.98*C Humidity=76.55% Pressure=100758.79Pa
1604118006 Temp=12.98*C Humidity=76.52% Pressure=100762.65Pa
1604118067 Temp=12.98*C Humidity=76.51% Pressure=100764.37Pa
1604118126 Temp=12.98*C Humidity=76.53% Pressure=100763.32Pa
1604118186 Temp=12.98*C Humidity=76.55% Pressure=100766.63Pa
1604118246 Temp=12.98*C Humidity=76.53% Pressure=100767.54Pa
1604118306 Temp=12.98*C Humidity=76.51% Pressure=100767.35Pa
1604118367 Temp=12.99*C Humidity=76.48% Pressure=100766.81Pa
1604118426 Temp=12.99*C Humidity=76.48% Pressure=100768.58Pa
1604118486 Temp=13.00*C Humidity=76.48% Pressure=100769.66Pa
1604118546 Temp=13.00*C Humidity=76.46% Pressure=100771.63Pa
1604118607 Temp=13.00*C Humidity=76.42% Pressure=100770.72Pa
1604118666 Temp=13.00*C Humidity=76.40% Pressure=100774.52Pa
1604118726 Temp=13.00*C Humidity=76.41% Pressure=100770.72Pa
Showing last 40 lines from file [/srv/app/pi-web01/chroot/pi-ws02/var/backup.txt] (60 total lines).

Station Logs

File Name
sensor.txt
backup.txt
outage.log
outlier.log
rrd.log
Display Limit